Time,TemperatureF,DewpointF,PressureIn,WindDirection,WindDirectionDegrees,WindSpeedMPH,WindSpeedGustMPH,Humidity,HourlyPrecipIn,Conditions,Clouds,dailyrainin,SoftwareType,DateUTC
2013-05-10 00:03:00,58.0,54.0,30.04,WSW,246,0.0,0.0,85,0.00,,,0.09,,2013-05-10 04:03:00,
2013-05-10 00:23:00,59.0,53.0,30.06,WSW,240,4.0,5.0,81,0.01,,,0.10,,2013-05-10 04:23:00,
2013-05-10 00:33:00,59.0,53.0,30.06,WSW,240,4.0,5.0,81,0.01,,,0.10,,2013-05-10 04:33:00,
2013-05-10 00:43:00,60.0,53.0,30.06,WSW,244,3.0,9.0,78,0.01,,,0.10,,2013-05-10 04:43:00,
2013-05-10 00:52:00,60.0,53.0,30.06,WSW,244,3.0,9.0,78,0.01,,,0.10,,2013-05-10 04:52:00,
2013-05-10 01:02:00,60.0,53.0,30.06,WSW,244,3.0,9.0,78,0.01,,,0.10,,2013-05-10 05:02:00,
2013-05-10 01:12:00,60.0,53.0,30.06,WSW,244,3.0,9.0,78,0.01,,,0.10,,2013-05-10 05:12:00,
2013-05-10 01:22:00,60.0,53.0,30.06,West,263,3.0,6.0,79,0.00,,,0.10,,2013-05-10 05:22:00,
2013-05-10 01:32:00,60.0,54.0,30.06,West,267,4.0,4.0,80,0.00,,,0.10,,2013-05-10 05:32:00,
2013-05-10 01:42:00,60.0,53.0,30.06,West,277,2.0,6.0,79,0.00,,,0.10,,2013-05-10 05:42:00,
2013-05-10 01:52:00,60.0,53.0,30.06,West,277,2.0,6.0,79,0.00,,,0.10,,2013-05-10 05:52:00,
2013-05-10 02:02:00,60.0,53.0,30.06,WSW,257,0.0,0.0,79,0.00,,,0.10,,2013-05-10 06:02:00,
2013-05-10 02:12:00,60.0,53.0,30.06,WSW,257,0.0,0.0,79,0.00,,,0.10,,2013-05-10 06:12:00,
2013-05-10 02:21:00,60.0,53.0,30.06,West,260,0.0,6.0,79,0.00,,,0.10,,2013-05-10 06:21:00,
2013-05-10 02:32:00,59.0,54.0,30.04,West,263,0.0,0.0,82,0.00,,,0.09,,2013-05-10 06:32:00,
2013-05-10 02:42:00,59.0,54.0,30.04,West,263,0.0,0.0,82,0.00,,,0.09,,2013-05-10 06:42:00,
2013-05-10 02:51:00,57.0,53.0,30.04,West,263,0.0,0.0,85,0.00,,,0.08,,2013-05-10 06:51:00,
2013-05-10 03:02:00,55.0,52.0,30.04,West,263,0.0,0.0,89,0.00,,,0.08,,2013-05-10 07:02:00,
2013-05-10 03:12:00,55.0,52.0,30.04,West,263,0.0,0.0,89,0.00,,,0.08,,2013-05-10 07:12:00,
2013-05-10 03:22:00,55.0,52.0,30.04,West,280,2.0,4.0,90,0.00,,,0.08,,2013-05-10 07:22:00,
2013-05-10 03:32:00,60.0,54.0,30.04,WNW,289,1.0,5.0,81,0.00,,,0.08,,2013-05-10 07:32:00,
2013-05-10 03:42:00,60.0,54.0,30.03,WNW,289,0.0,2.0,80,0.00,,,0.08,,2013-05-10 07:42:00,
2013-05-10 03:52:00,60.0,54.0,30.03,WNW,289,0.0,2.0,80,0.00,,,0.08,,2013-05-10 07:52:00,
2013-05-10 04:02:00,60.0,54.0,30.03,WNW,289,0.0,2.0,80,0.00,,,0.08,,2013-05-10 08:02:00,
2013-05-10 04:12:00,60.0,54.0,30.03,WNW,289,0.0,2.0,80,0.00,,,0.08,,2013-05-10 08:12:00,
2013-05-10 04:22:00,60.0,54.0,30.03,WNW,289,0.0,2.0,80,0.00,,,0.08,,2013-05-10 08:22:00,
2013-05-10 04:32:00,58.0,54.0,30.03,ENE,72,0.0,0.0,85,0.00,,,0.08,,2013-05-10 08:32:00,
2013-05-10 04:42:00,58.0,54.0,30.03,ENE,72,0.0,0.0,85,0.00,,,0.08,,2013-05-10 08:42:00,
2013-05-10 04:52:00,56.0,52.0,30.03,ENE,72,0.0,0.0,87,0.00,,,0.08,,2013-05-10 08:52:00,
2013-05-10 05:02:00,55.0,52.0,30.03,ENE,72,0.0,0.0,89,0.00,,,0.08,,2013-05-10 09:02:00,
2013-05-10 05:11:00,55.0,52.0,30.03,ENE,72,0.0,0.0,89,0.00,,,0.08,,2013-05-10 09:11:00,
2013-05-10 05:21:00,55.0,52.0,30.03,ENE,72,0.0,0.0,89,0.00,,,0.08,,2013-05-10 09:21:00,
2013-05-10 05:33:00,54.0,52.0,30.02,ENE,69,0.0,0.0,93,0.00,,,0.08,,2013-05-10 09:33:00,
2013-05-10 05:43:00,54.0,52.0,30.02,ENE,69,0.0,0.0,93,0.00,,,0.08,,2013-05-10 09:43:00,
2013-05-10 05:53:00,54.0,52.0,30.02,ENE,69,0.0,0.0,93,0.00,,,0.08,,2013-05-10 09:53:00,
2013-05-10 06:03:00,54.0,52.0,30.02,ENE,69,0.0,0.0,93,0.00,,,0.08,,2013-05-10 10:03:00,
2013-05-10 06:12:00,54.0,52.0,30.02,ENE,69,0.0,0.0,93,0.00,,,0.08,,2013-05-10 10:12:00,
2013-05-10 06:23:00,54.0,52.0,30.02,ENE,69,0.0,0.0,93,0.00,,,0.08,,2013-05-10 10:23:00,
2013-05-10 06:32:00,54.0,52.0,30.02,ENE,69,0.0,0.0,93,0.00,,,0.08,,2013-05-10 10:32:00,
2013-05-10 06:42:00,54.0,52.0,30.02,ENE,69,0.0,0.0,93,0.00,,,0.08,,2013-05-10 10:42:00,
2013-05-10 06:53:00,54.0,52.0,30.02,ENE,69,0.0,0.0,93,0.00,,,0.08,,2013-05-10 10:53:00,
2013-05-10 07:02:00,55.0,53.0,30.03,ENE,69,0.0,0.0,94,0.00,,,0.08,,2013-05-10 11:02:00,
2013-05-10 07:12:00,55.0,53.0,30.03,ENE,69,0.0,0.0,94,0.00,,,0.08,,2013-05-10 11:12:00,
2013-05-10 07:22:00,55.0,53.0,30.03,ENE,69,0.0,0.0,94,0.00,,,0.08,,2013-05-10 11:22:00,
2013-05-10 07:32:00,56.0,53.0,30.02,ENE,69,0.0,1.0,91,0.00,,,0.08,,2013-05-10 11:32:00,
2013-05-10 07:42:00,56.0,53.0,30.02,ENE,69,0.0,1.0,91,0.00,,,0.08,,2013-05-10 11:42:00,
2013-05-10 07:52:00,56.0,53.0,30.02,ENE,69,0.0,1.0,91,0.00,,,0.08,,2013-05-10 11:52:00,
2013-05-10 08:02:00,58.0,54.0,30.02,East,83,3.0,5.0,87,0.00,,,0.08,,2013-05-10 12:02:00,
2013-05-10 08:12:00,58.0,54.0,30.02,East,83,3.0,5.0,87,0.00,,,0.08,,2013-05-10 12:12:00,
2013-05-10 08:22:00,58.0,54.0,30.02,East,82,2.0,4.0,87,0.00,,,0.08,,2013-05-10 12:22:00,
2013-05-10 08:32:00,59.0,55.0,30.02,East,88,0.0,5.0,86,0.00,,,0.08,,2013-05-10 12:32:00,
2013-05-10 08:42:00,59.0,55.0,30.02,East,88,0.0,5.0,86,0.00,,,0.08,,2013-05-10 12:42:00,
2013-05-10 08:52:00,60.0,55.0,30.02,East,79,1.0,3.0,85,0.00,,,0.08,,2013-05-10 12:52:00,
2013-05-10 09:01:00,62.0,57.0,30.01,ENE,71,0.0,5.0,83,0.00,,,0.08,,2013-05-10 13:01:00,
2013-05-10 09:11:00,62.0,57.0,30.01,ENE,71,0.0,5.0,83,0.00,,,0.08,,2013-05-10 13:11:00,
2013-05-10 09:21:00,62.0,57.0,30.01,ENE,71,0.0,5.0,83,0.00,,,0.08,,2013-05-10 13:21:00,
2013-05-10 09:32:00,65.0,58.0,30.03,North,351,5.0,19.0,77,0.00,,,0.08,,2013-05-10 13:32:00,
2013-05-10 09:42:00,65.0,58.0,30.03,North,351,5.0,19.0,77,0.00,,,0.08,,2013-05-10 13:42:00,
2013-05-10 09:52:00,65.0,58.0,30.03,North,351,5.0,19.0,77,0.00,,,0.08,,2013-05-10 13:52:00,
2013-05-10 10:02:00,65.0,58.0,30.03,North,351,5.0,19.0,77,0.00,,,0.08,,2013-05-10 14:02:00,
2013-05-10 10:11:00,65.0,58.0,30.03,North,351,5.0,19.0,77,0.00,,,0.08,,2013-05-10 14:11:00,
2013-05-10 10:21:00,58.0,55.0,30.03,North,355,0.0,12.0,91,0.00,,,0.08,,2013-05-10 14:21:00,
2013-05-10 10:32:00,57.0,55.0,30.03,WNW,289,3.0,9.0,94,0.00,,,0.08,,2013-05-10 14:32:00,
2013-05-10 10:42:00,57.0,55.0,30.03,WNW,289,3.0,9.0,94,0.00,,,0.08,,2013-05-10 14:42:00,
2013-05-10 10:51:00,57.0,55.0,30.03,WNW,289,3.0,9.0,94,0.00,,,0.08,,2013-05-10 14:51:00,
2013-05-10 11:02:00,58.0,57.0,30.05,NNW,331,10.0,10.0,95,0.01,,,0.08,,2013-05-10 15:02:00,
2013-05-10 11:20:00,-999.0,-99.9,30.05,NNW,331,10.0,10.0,95,0.01,,,0.08,,2013-05-10 15:20:00,
2013-05-10 11:32:00,56.0,55.0,30.05,WNW,301,3.0,8.0,96,0.08,,,0.14,,2013-05-10 15:32:00,
2013-05-10 11:42:00,56.0,55.0,30.03,ESE,103,0.0,4.0,98,0.12,,,0.17,,2013-05-10 15:42:00,
2013-05-10 11:53:00,56.0,55.0,30.03,ESE,103,0.0,4.0,98,0.12,,,0.17,,2013-05-10 15:53:00,
2013-05-10 12:02:00,57.0,57.0,30.01,East,89,3.0,5.0,99,0.11,,,0.17,,2013-05-10 16:02:00,
2013-05-10 12:12:00,57.0,57.0,30.01,East,89,3.0,5.0,99,0.11,,,0.17,,2013-05-10 16:12:00,
2013-05-10 12:23:00,58.0,58.0,30.02,East,80,3.0,6.0,99,0.09,,,0.17,,2013-05-10 16:23:00,
2013-05-10 12:33:00,60.0,59.0,30.00,East,83,0.0,9.0,97,0.00,,,0.17,,2013-05-10 16:33:00,
2013-05-10 12:43:00,63.0,61.0,30.00,East,89,9.0,13.0,92,0.00,,,0.17,,2013-05-10 16:43:00,
2013-05-10 12:52:00,63.0,61.0,30.00,East,89,9.0,13.0,92,0.00,,,0.17,,2013-05-10 16:52:00,
2013-05-10 13:02:00,64.0,60.0,30.00,SE,137,9.0,13.0,87,0.00,,,0.17,,2013-05-10 17:02:00,
2013-05-10 13:12:00,64.0,60.0,30.00,SE,137,9.0,13.0,87,0.00,,,0.17,,2013-05-10 17:12:00,
2013-05-10 13:22:00,65.0,61.0,29.99,ESE,120,7.0,11.0,86,0.00,,,0.17,,2013-05-10 17:22:00,
2013-05-10 13:32:00,65.0,61.0,29.99,ESE,120,7.0,11.0,86,0.00,,,0.17,,2013-05-10 17:32:00,
2013-05-10 13:42:00,65.0,61.0,29.99,ESE,120,7.0,11.0,86,0.00,,,0.17,,2013-05-10 17:42:00,
2013-05-10 13:52:00,65.0,61.0,29.99,ESE,120,7.0,11.0,86,0.00,,,0.17,,2013-05-10 17:52:00,